Volver al catálogo

XM-7

ActivoComunicacionesGEO
NORAD 47240·PAYLOAD·🇺🇸 United States

Lanzado Dec 13, 2020 desde Cape Canaveral Space Force Station

Loading…

TLE

ActualizadoSource: Space-Track

Época: Sep 14, 2026, 13:23 UTC

1 47240U 20096A   26257.55824416 -.00000213  00000-0  00000-0 0  9998
2 47240   0.0159 133.3124 0004624 350.5813 345.4400  1.00271338  8342

Sigue XM-7 en tiempo real con AllMySat

Download on the App Store